START_TIME,STEP,MOV.,M35,t_acc.,PL05,t_acc.,PL06,t_acc.,PL07,t_acc.
1981-08-25 00:00:24.910 ,1,0,0.,4.8,4.,4.8,0.,4.8,0.,4.8
1981-08-25 00:00:29.710 ,1,0,0.,4.8,1.,4.8,0.,4.8,0.,4.8
1981-08-25 00:00:34.510 ,1,0,0.,4.8,1.,4.8,0.,4.8,0.,4.8
1981-08-25 00:00:39.310 ,1,0,0.,4.8,2.,4.8,1.,4.8,0.,4.8
1981-08-25 00:00:44.110 ,1,0,0.,4.8,1.,4.8,0.,4.8,0.,4.8
1981-08-25 00:00:48.910 ,0,0,0.,4.8,2.,4.8,0.,4.8,0.,4.8
1981-08-25 00:00:53.710 ,0,0,0.,4.8,1.,4.8,0.,4.8,0.,4.8
1981-08-25 00:00:58.510 ,0,0,0.,4.8,3.,4.8,0.,4.8,0.,4.8
1981-08-25 00:01:03.310 ,0,0,0.,4.8,1.,4.8,1.,4.8,0.,4.8
1981-08-25 00:01:08.110 ,0,0,0.,4.8,0.,4.8,0.,4.8,1.,4.8
1981-08-25 00:01:12.910 ,0,0,0.,4.8,2.,4.8,0.,4.8,0.,4.8
1981-08-25 00:01:17.710 ,0,0,0.,4.8,1.,4.8,1.,4.8,1.,4.8
1981-08-25 00:01:22.510 ,0,0,0.,4.8,2.,4.8,0.,4.8,0.,4.8
1981-08-25 00:01:27.310 ,0,0,0.,4.8,1.,4.8,0.,4.8,0.,4.8
1981-08-25 00:01:32.110 ,0,0,0.,4.8,3.,4.8,1.,4.8,0.,4.8
1981-08-25 00:01:36.910 ,0,0,0.,4.8,1.,4.8,0.,4.8,0.,4.8
1981-08-25 00:01:41.710 ,0,0,0.,4.8,0.,4.8,0.,4.8,0.,4.8
1981-08-25 00:01:46.510 ,0,0,0.,4.8,0.,4.8,1.,4.8,0.,4.8
1981-08-25 00:01:51.310 ,0,0,0.,4.8,0.,4.8,0.,4.8,0.,4.8
1981-08-25 00:01:56.110 ,0,0,0.,4.8,2.,4.8,0.,4.8,0.,4.8
1981-08-25 00:02:00.910 ,0,0,0.,4.8,2.,4.8,0.,4.8,0.,4.8
1981-08-25 00:02:05.710 ,0,0,0.,4.8,0.,4.8,2.,4.8,0.,4.8
1981-08-25 00:02:10.510 ,0,0,0.,4.8,2.,4.8,0.,4.8,0.,4.8
1981-08-25 00:02:15.310 ,0,0,0.,4.8,2.,4.8,2.,4.8,0.,4.8
1981-08-25 00:02:20.110 ,0,0,0.,4.8,0.,4.8,0.,4.8,1.,4.8
1981-08-25 00:02:24.910 ,1,0,0.,4.8,3.,4.8,0.,4.8,0.,4.8
1981-08-25 00:02:29.710 ,1,0,0.,4.8,0.,4.8,1.,4.8,1.,4.8
1981-08-25 00:02:34.510 ,1,0,0.,4.8,2.,4.8,0.,4.8,0.,4.8
1981-08-25 00:02:39.310 ,1,0,0.,4.8,0.,4.8,0.,4.8,0.,4.8
1981-08-25 00:02:44.110 ,1,0,0.,4.8,2.,4.8,0.,4.8,0.,4.8
1981-08-25 00:02:48.910 ,1,0,0.,4.8,2.,4.8,1.,4.8,1.,4.8
1981-08-25 00:02:53.710 ,1,0,0.,4.8,2.,4.8,0.,4.8,0.,4.8
1981-08-25 00:02:58.510 ,1,0,0.,4.8,2.,4.8,0.,4.8,0.,4.8
1981-08-25 00:03:03.310 ,1,0,0.,4.8,1.,4.8,0.,4.8,0.,4.8
1981-08-25 00:03:08.110 ,1,0,0.,4.8,0.,4.8,0.,4.8,0.,4.8
1981-08-25 00:03:12.910 ,2,0,0.,4.8,0.,4.8,0.,4.8,0.,4.8
1981-08-25 00:03:17.710 ,2,0,0.,4.8,3.,4.8,0.,4.8,0.,4.8
1981-08-25 00:03:22.510 ,2,0,0.,4.8,3.,4.8,0.,4.8,0.,4.8
1981-08-25 00:03:27.310 ,2,0,0.,4.8,3.,4.8,0.,4.8,0.,4.8
1981-08-25 00:03:32.110 ,2,0,0.,4.8,1.,4.8,1.,4.8,0.,4.8
1981-08-25 00:03:36.910 ,2,0,0.,4.8,2.,4.8,0.,4.8,0.,4.8
1981-08-25 00:03:41.710 ,2,0,0.,4.8,1.,4.8,0.,4.8,1.,4.8
1981-08-25 00:03:46.510 ,2,0,0.,4.8,4.,4.8,0.,4.8,0.,4.8
1981-08-25 00:03:51.310 ,2,0,0.,4.8,1.,4.8,0.,4.8,0.,4.8
1981-08-25 00:03:56.110 ,2,0,0.,4.8,0.,4.8,0.,4.8,1.,4.8
1981-08-25 00:04:00.910 ,3,0,0.,4.8,0.,4.8,0.,4.8,2.,4.8
1981-08-25 00:04:05.710 ,3,0,0.,4.8,1.,4.8,0.,4.8,0.,4.8
1981-08-25 00:04:10.510 ,3,0,0.,4.8,1.,4.8,0.,4.8,0.,4.8
1981-08-25 00:04:15.310 ,3,0,0.,4.8,1.,4.8,0.,4.8,0.,4.8
1981-08-25 00:04:20.110 ,3,0,0.,4.8,1.,4.8,0.,4.8,0.,4.8
1981-08-25 00:04:24.910 ,3,0,0.,4.8,0.,4.8,0.,4.8,0.,4.8
1981-08-25 00:04:29.710 ,3,0,0.,4.8,0.,4.8,0.,4.8,0.,4.8
1981-08-25 00:04:34.510 ,3,0,0.,4.8,1.,4.8,0.,4.8,1.,4.8
1981-08-25 00:04:39.310 ,3,0,0.,4.8,1.,4.8,1.,4.8,0.,4.8
1981-08-25 00:04:44.110 ,3,0,0.,4.8,0.,4.8,0.,4.8,0.,4.8
1981-08-25 00:04:48.910 ,4,0,0.,4.8,2.,4.8,1.,4.8,0.,4.8
1981-08-25 00:04:53.710 ,4,0,0.,4.8,1.,4.8,0.,4.8,0.,4.8
1981-08-25 00:04:58.510 ,4,0,0.,4.8,3.,4.8,0.,4.8,0.,4.8
1981-08-25 00:05:03.310 ,4,0,0.,4.8,4.,4.8,2.,4.8,1.,4.8
1981-08-25 00:05:08.110 ,4,0,0.,4.8,0.,4.8,0.,4.8,0.,4.8
1981-08-25 00:05:12.910 ,4,0,0.,4.8,2.,4.8,2.,4.8,0.,4.8
1981-08-25 00:05:17.710 ,4,0,0.,4.8,1.,4.8,2.,4.8,0.,4.8
1981-08-25 00:05:22.510 ,4,0,0.,4.8,4.,4.8,0.,4.8,0.,4.8
1981-08-25 00:05:27.310 ,4,0,0.,4.8,0.,4.8,0.,4.8,0.,4.8
1981-08-25 00:05:32.110 ,4,0,0.,4.8,2.,4.8,1.,4.8,0.,4.8
1981-08-25 00:05:36.910 ,5,0,0.,4.8,1.,4.8,0.,4.8,0.,4.8
1981-08-25 00:05:41.710 ,5,0,0.,4.8,2.,4.8,0.,4.8,0.,4.8
1981-08-25 00:05:46.510 ,5,0,0.,4.8,3.,4.8,0.,4.8,0.,4.8
1981-08-25 00:05:51.310 ,5,0,0.,4.8,0.,4.8,1.,4.8,1.,4.8
1981-08-25 00:05:56.110 ,5,0,0.,4.8,0.,4.8,1.,4.8,0.,4.8
1981-08-25 00:06:00.910 ,5,0,0.,4.8,0.,4.8,1.,4.8,0.,4.8
1981-08-25 00:06:05.710 ,5,0,0.,4.8,3.,4.8,0.,4.8,0.,4.8
1981-08-25 00:06:10.510 ,5,0,0.,4.8,1.,4.8,2.,4.8,0.,4.8
1981-08-25 00:06:15.310 ,5,0,0.,4.8,1.,4.8,0.,4.8,0.,4.8
1981-08-25 00:06:20.110 ,5,0,0.,4.8,3.,4.8,2.,4.8,1.,4.8
1981-08-25 00:06:24.910 ,6,0,0.,4.8,0.,4.8,0.,4.8,0.,4.8
1981-08-25 00:06:29.710 ,6,0,0.,4.8,2.,4.8,2.,4.8,0.,4.8
1981-08-25 00:06:34.510 ,6,0,0.,4.8,4.,4.8,0.,4.8,0.,4.8
1981-08-25 00:06:39.310 ,6,0,0.,4.8,2.,4.8,2.,4.8,0.,4.8
1981-08-25 00:06:44.110 ,6,0,0.,4.8,1.,4.8,1.,4.8,0.,4.8
1981-08-25 00:06:48.910 ,6,0,0.,4.8,0.,4.8,0.,4.8,0.,4.8
1981-08-25 00:06:53.710 ,6,0,0.,4.8,1.,4.8,0.,4.8,0.,4.8
1981-08-25 00:06:58.510 ,6,0,0.,4.8,1.,4.8,0.,4.8,0.,4.8
1981-08-25 00:07:03.310 ,6,0,0.,4.8,1.,4.8,0.,4.8,0.,4.8
1981-08-25 00:07:08.110 ,6,0,0.,4.8,1.,4.8,0.,4.8,0.,4.8
1981-08-25 00:07:12.910 ,7,0,0.,4.8,0.,4.8,1.,4.8,1.,4.8
1981-08-25 00:07:17.710 ,7,0,0.,4.8,2.,4.8,0.,4.8,0.,4.8
1981-08-25 00:07:22.510 ,7,0,0.,4.8,0.,4.8,0.,4.8,0.,4.8
1981-08-25 00:07:27.310 ,7,0,0.,4.8,1.,4.8,0.,4.8,0.,4.8
1981-08-25 00:07:32.110 ,7,0,0.,4.8,0.,4.8,0.,4.8,0.,4.8
1981-08-25 00:07:36.910 ,7,0,0.,4.8,0.,4.8,0.,4.8,0.,4.8
1981-08-25 00:07:41.710 ,7,0,0.,4.8,1.,4.8,0.,4.8,0.,4.8
1981-08-25 00:07:46.510 ,7,0,0.,4.8,0.,4.8,0.,4.8,0.,4.8
1981-08-25 00:07:51.310 ,7,0,0.,4.8,0.,4.8,0.,4.8,0.,4.8
1981-08-25 00:07:56.110 ,7,0,0.,4.8,0.,4.8,0.,4.8,0.,4.8
1981-08-25 00:08:00.910 ,7,0,0.,4.8,0.,4.8,0.,4.8,0.,4.8
1981-08-25 00:08:05.710 ,7,0,0.,4.8,0.,4.8,0.,4.8,1.,4.8
1981-08-25 00:08:10.510 ,7,0,0.,4.8,0.,4.8,0.,4.8,0.,4.8
1981-08-25 00:08:15.310 ,7,0,0.,4.8,0.,4.8,0.,4.8,0.,4.8
1981-08-25 00:08:20.110 ,7,0,0.,4.8,1.,4.8,0.,4.8,0.,4.8
1981-08-25 00:08:24.910 ,7,0,0.,4.8,1.,4.8,0.,4.8,0.,4.8
1981-08-25 00:08:29.710 ,7,0,0.,4.8,0.,4.8,1.,4.8,1.,4.8
1981-08-25 00:08:34.510 ,7,0,0.,4.8,0.,4.8,0.,4.8,0.,4.8
1981-08-25 00:08:39.310 ,7,0,0.,4.8,1.,4.8,0.,4.8,0.,4.8
1981-08-25 00:08:44.110 ,7,0,0.,4.8,0.,4.8,0.,4.8,0.,4.8
1981-08-25 00:08:48.910 ,6,0,0.,4.8,0.,4.8,0.,4.8,0.,4.8
1981-08-25 00:08:53.710 ,6,0,0.,4.8,0.,4.8,0.,4.8,1.,4.8
1981-08-25 00:08:58.510 ,6,0,0.,4.8,1.,4.8,0.,4.8,0.,4.8
1981-08-25 00:09:03.310 ,6,0,0.,4.8,2.,4.8,0.,4.8,0.,4.8
1981-08-25 00:09:08.110 ,6,0,0.,4.8,1.,4.8,1.,4.8,0.,4.8
1981-08-25 00:09:12.910 ,6,0,0.,4.8,2.,4.8,0.,4.8,2.,4.8
1981-08-25 00:09:17.710 ,6,0,0.,4.8,2.,4.8,0.,4.8,1.,4.8
1981-08-25 00:09:22.510 ,6,0,0.,4.8,0.,4.8,0.,4.8,0.,4.8
1981-08-25 00:09:27.310 ,6,0,0.,4.8,1.,4.8,0.,4.8,1.,4.8
1981-08-25 00:09:32.110 ,6,0,0.,4.8,2.,4.8,0.,4.8,0.,4.8
1981-08-25 00:09:36.910 ,5,0,0.,4.8,1.,4.8,0.,4.8,1.,4.8
1981-08-25 00:09:41.710 ,5,0,0.,4.8,2.,4.8,1.,4.8,0.,4.8
1981-08-25 00:09:46.510 ,5,0,0.,4.8,1.,4.8,1.,4.8,0.,4.8
1981-08-25 00:09:51.310 ,5,0,0.,4.8,0.,4.8,1.,4.8,1.,4.8
1981-08-25 00:09:56.110 ,5,0,0.,4.8,1.,4.8,0.,4.8,0.,4.8
1981-08-25 00:10:00.910 ,0,0,0.,4.8,0.,4.8,2.,4.8,0.,4.8
1981-08-25 00:10:05.710 ,0,0,0.,4.8,3.,4.8,1.,4.8,2.,4.8
1981-08-25 00:10:10.510 ,0,0,0.,4.8,3.,4.8,0.,4.8,1.,4.8
1981-08-25 00:10:15.310 ,0,0,0.,4.8,2.,4.8,0.,4.8,1.,4.8
1981-08-25 00:10:20.110 ,0,0,0.,4.8,0.,4.8,3.,4.8,0.,4.8
1981-08-25 00:11:00.910 ,0,0,,0,,0,,0,,0
1981-08-25 00:11:05.710 ,0,0,,0,,0,,0,,0
1981-08-25 00:11:10.510 ,0,0,,0,,0,,0,,0
1981-08-25 00:11:15.310 ,0,0,0.,4.8,2.,4.8,0.,4.8,2.,4.8
1981-08-25 00:11:20.110 ,0,0,0.,4.8,1.,4.8,1.,4.8,2.,4.8
1981-08-25 00:11:12.910 ,3,0,0.,4.8,2.,4.8,1.,4.8,0.,4.8
1981-08-25 00:11:17.710 ,3,0,0.,4.8,1.,4.8,1.,4.8,0.,4.8
1981-08-25 00:11:22.510 ,3,0,0.,4.8,0.,4.8,0.,4.8,0.,4.8
1981-08-25 00:11:27.310 ,3,0,0.,4.8,4.,4.8,1.,4.8,0.,4.8
1981-08-25 00:11:32.110 ,3,0,0.,4.8,0.,4.8,1.,4.8,0.,4.8
1981-08-25 00:11:36.910 ,3,0,0.,4.8,0.,4.8,1.,4.8,0.,4.8
1981-08-25 00:11:41.710 ,3,0,0.,4.8,3.,4.8,0.,4.8,1.,4.8
1981-08-25 00:11:46.510 ,3,0,0.,4.8,4.,4.8,0.,4.8,0.,4.8
1981-08-25 00:11:51.310 ,3,0,0.,4.8,0.,4.8,0.,4.8,0.,4.8
1981-08-25 00:11:56.110 ,3,0,0.,4.8,1.,4.8,0.,4.8,0.,4.8
1981-08-25 00:12:00.910 ,2,0,0.,4.8,1.,4.8,2.,4.8,0.,4.8
1981-08-25 00:12:05.710 ,2,0,0.,4.8,2.,4.8,1.,4.8,0.,4.8
1981-08-25 00:12:10.510 ,2,0,0.,4.8,0.,4.8,0.,4.8,0.,4.8
1981-08-25 00:12:15.310 ,2,0,0.,4.8,3.,4.8,0.,4.8,0.,4.8
1981-08-25 00:12:20.110 ,2,0,0.,4.8,0.,4.8,0.,4.8,0.,4.8
1981-08-25 00:12:24.910 ,2,0,0.,4.8,0.,4.8,0.,4.8,0.,4.8
1981-08-25 00:12:29.710 ,2,0,0.,4.8,1.,4.8,0.,4.8,0.,4.8
1981-08-25 00:12:34.510 ,2,0,0.,4.8,1.,4.8,0.,4.8,0.,4.8
1981-08-25 00:12:39.310 ,2,0,0.,4.8,0.,4.8,1.,4.8,0.,4.8
1981-08-25 00:12:44.110 ,2,0,0.,4.8,0.,4.8,0.,4.8,0.,4.8
1981-08-25 00:12:48.910 ,1,0,0.,4.8,0.,4.8,1.,4.8,0.,4.8
1981-08-25 00:12:53.710 ,1,0,0.,4.8,1.,4.8,0.,4.8,0.,4.8
1981-08-25 00:12:58.510 ,1,0,0.,4.8,1.,4.8,0.,4.8,0.,4.8
1981-08-25 00:13:03.310 ,1,0,0.,4.8,2.,4.8,1.,4.8,0.,4.8
1981-08-25 00:13:08.110 ,1,0,0.,4.8,0.,4.8,1.,4.8,0.,4.8
1981-08-25 00:13:12.910 ,1,0,0.,4.8,0.,4.8,0.,4.8,0.,4.8
1981-08-25 00:13:17.710 ,1,0,0.,4.8,3.,4.8,0.,4.8,0.,4.8
1981-08-25 00:13:22.510 ,1,0,0.,4.8,2.,4.8,0.,4.8,0.,4.8
1981-08-25 00:13:27.310 ,1,0,0.,4.8,2.,4.8,0.,4.8,0.,4.8
1981-08-25 00:13:32.110 ,1,0,0.,4.8,2.,4.8,0.,4.8,0.,4.8
1981-08-25 00:13:36.910 ,0,0,0.,4.8,2.,4.8,0.,4.8,0.,4.8
1981-08-25 00:13:41.710 ,0,0,0.,4.8,2.,4.8,0.,4.8,1.,4.8
1981-08-25 00:13:46.510 ,0,0,0.,4.8,3.,4.8,1.,4.8,2.,4.8
1981-08-25 00:13:51.310 ,0,0,0.,4.8,1.,4.8,2.,4.8,1.,4.8
1981-08-25 00:13:56.110 ,0,0,0.,4.8,2.,4.8,1.,4.8,0.,4.8
1981-08-25 00:14:00.910 ,0,0,0.,4.8,2.,4.8,0.,4.8,0.,4.8
1981-08-25 00:14:05.710 ,0,0,0.,4.8,1.,4.8,0.,4.8,1.,4.8
1981-08-25 00:14:10.510 ,0,0,0.,4.8,5.,4.8,0.,4.8,0.,4.8
1981-08-25 00:14:15.310 ,0,0,0.,4.8,3.,4.8,1.,4.8,0.,4.8
1981-08-25 00:14:20.110 ,0,0,0.,4.8,1.,4.8,2.,4.8,0.,4.8
1981-08-25 00:14:24.910 ,0,0,0.,4.8,3.,4.8,1.,4.8,1.,4.8
1981-08-25 00:14:29.710 ,0,0,0.,4.8,0.,4.8,1.,4.8,0.,4.8
1981-08-25 00:14:34.510 ,0,0,0.,4.8,2.,4.8,0.,4.8,1.,4.8
1981-08-25 00:14:39.310 ,0,0,0.,4.8,1.,4.8,0.,4.8,0.,4.8
1981-08-25 00:14:44.110 ,0,0,0.,4.8,0.,4.8,0.,4.8,0.,4.8
1981-08-25 00:14:48.910 ,0,0,0.,4.8,2.,4.8,0.,4.8,1.,4.8
1981-08-25 00:14:53.710 ,0,0,0.,4.8,4.,4.8,0.,4.8,0.,4.8
1981-08-25 00:14:58.510 ,0,0,0.,4.8,0.,4.8,1.,4.8,0.,4.8
1981-08-25 00:15:03.310 ,0,0,0.,4.8,2.,4.8,1.,4.8,0.,4.8
1981-08-25 00:15:08.110 ,0,0,0.,4.8,2.,4.8,1.,4.8,0.,4.8
1981-08-25 00:15:12.910 ,1,0,0.,4.8,2.,4.8,0.,4.8,0.,4.8
1981-08-25 00:15:17.710 ,1,0,0.,4.8,3.,4.8,1.,4.8,0.,4.8
1981-08-25 00:15:22.510 ,1,0,0.,4.8,2.,4.8,0.,4.8,0.,4.8
1981-08-25 00:15:27.310 ,1,0,0.,4.8,0.,4.8,0.,4.8,0.,4.8
1981-08-25 00:15:32.110 ,1,0,0.,4.8,0.,4.8,0.,4.8,0.,4.8
1981-08-25 00:15:36.910 ,1,0,0.,4.8,2.,4.8,0.,4.8,0.,4.8
1981-08-25 00:15:41.710 ,1,0,0.,4.8,2.,4.8,1.,4.8,1.,4.8
1981-08-25 00:15:46.510 ,1,0,0.,4.8,0.,4.8,0.,4.8,0.,4.8
1981-08-25 00:15:51.310 ,1,0,0.,4.8,2.,4.8,0.,4.8,0.,4.8
1981-08-25 00:15:56.110 ,1,0,0.,4.8,2.,4.8,0.,4.8,0.,4.8
1981-08-25 00:16:00.910 ,2,0,0.,4.8,1.,4.8,0.,4.8,0.,4.8
1981-08-25 00:16:05.710 ,2,0,0.,4.8,2.,4.8,1.,4.8,0.,4.8
1981-08-25 00:16:10.510 ,2,0,0.,4.8,0.,4.8,0.,4.8,1.,4.8
1981-08-25 00:16:15.310 ,2,0,0.,4.8,2.,4.8,0.,4.8,0.,4.8
1981-08-25 00:16:20.110 ,2,0,0.,4.8,1.,4.8,0.,4.8,0.,4.8
1981-08-25 00:16:24.910 ,2,0,0.,4.8,3.,4.8,0.,4.8,0.,4.8
1981-08-25 00:16:29.710 ,2,0,0.,4.8,1.,4.8,0.,4.8,0.,4.8
1981-08-25 00:16:34.510 ,2,0,0.,4.8,1.,4.8,1.,4.8,0.,4.8
1981-08-25 00:16:39.310 ,2,0,0.,4.8,0.,4.8,1.,4.8,0.,4.8
1981-08-25 00:16:44.110 ,2,0,0.,4.8,3.,4.8,1.,4.8,0.,4.8
1981-08-25 00:16:48.910 ,3,0,0.,4.8,0.,4.8,0.,4.8,0.,4.8
1981-08-25 00:16:53.710 ,3,0,0.,4.8,1.,4.8,0.,4.8,0.,4.8
1981-08-25 00:16:58.510 ,3,0,0.,4.8,1.,4.8,0.,4.8,0.,4.8
1981-08-25 00:17:03.310 ,3,0,0.,4.8,4.,4.8,2.,4.8,0.,4.8
1981-08-25 00:17:08.110 ,3,0,0.,4.8,1.,4.8,0.,4.8,0.,4.8
1981-08-25 00:17:12.910 ,3,0,0.,4.8,0.,4.8,0.,4.8,0.,4.8
1981-08-25 00:17:17.710 ,3,0,0.,4.8,1.,4.8,1.,4.8,0.,4.8
1981-08-25 00:17:22.510 ,3,0,0.,4.8,0.,4.8,1.,4.8,0.,4.8
1981-08-25 00:17:27.310 ,3,0,0.,4.8,2.,4.8,1.,4.8,1.,4.8
1981-08-25 00:17:32.110 ,3,0,0.,4.8,2.,4.8,0.,4.8,1.,4.8
1981-08-25 00:17:36.910 ,4,0,0.,4.8,1.,4.8,0.,4.8,0.,4.8
1981-08-25 00:17:41.710 ,4,0,0.,4.8,0.,4.8,1.,4.8,0.,4.8
1981-08-25 00:17:46.510 ,4,0,0.,4.8,2.,4.8,1.,4.8,0.,4.8
1981-08-25 00:17:51.310 ,4,0,0.,4.8,2.,4.8,1.,4.8,1.,4.8
1981-08-25 00:17:56.110 ,4,0,0.,4.8,5.,4.8,1.,4.8,1.,4.8
1981-08-25 00:18:00.910 ,4,0,0.,4.8,1.,4.8,2.,4.8,1.,4.8
1981-08-25 00:18:05.710 ,4,0,0.,4.8,0.,4.8,2.,4.8,2.,4.8
1981-08-25 00:18:10.510 ,4,0,0.,4.8,0.,4.8,5.,4.8,0.,4.8
1981-08-25 00:18:15.310 ,4,0,0.,4.8,2.,4.8,0.,4.8,0.,4.8
1981-08-25 00:18:20.110 ,4,0,0.,4.8,3.,4.8,1.,4.8,0.,4.8
1981-08-25 00:18:24.910 ,5,0,0.,4.8,5.,4.8,0.,4.8,0.,4.8
1981-08-25 00:18:29.710 ,5,0,0.,4.8,4.,4.8,0.,4.8,0.,4.8
1981-08-25 00:18:34.510 ,5,0,0.,4.8,4.,4.8,0.,4.8,2.,4.8
1981-08-25 00:18:39.310 ,5,0,0.,4.8,1.,4.8,2.,4.8,0.,4.8
1981-08-25 00:18:44.110 ,5,0,0.,4.8,4.,4.8,0.,4.8,2.,4.8
1981-08-25 00:18:48.910 ,5,0,0.,4.8,2.,4.8,2.,4.8,0.,4.8
1981-08-25 00:18:53.710 ,5,0,0.,4.8,0.,4.8,1.,4.8,0.,4.8
1981-08-25 00:18:58.510 ,5,0,0.,4.8,2.,4.8,1.,4.8,0.,4.8
1981-08-25 00:19:03.310 ,5,0,0.,4.8,2.,4.8,0.,4.8,0.,4.8
1981-08-25 00:19:08.110 ,5,0,0.,4.8,6.,4.8,1.,4.8,0.,4.8
1981-08-25 00:19:12.910 ,6,0,0.,4.8,0.,4.8,0.,4.8,0.,4.8
1981-08-25 00:19:17.710 ,6,0,0.,4.8,7.,4.8,0.,4.8,0.,4.8
1981-08-25 00:19:22.510 ,6,0,0.,4.8,1.,4.8,0.,4.8,0.,4.8
1981-08-25 00:19:27.310 ,6,0,0.,4.8,1.,4.8,3.,4.8,1.,4.8
1981-08-25 00:19:32.110 ,6,0,0.,4.8,3.,4.8,0.,4.8,0.,4.8
1981-08-25 00:19:36.910 ,6,0,0.,4.8,3.,4.8,0.,4.8,0.,4.8
1981-08-25 00:19:41.710 ,6,0,0.,4.8,0.,4.8,0.,4.8,0.,4.8
1981-08-25 00:19:46.510 ,6,0,0.,4.8,1.,4.8,0.,4.8,0.,4.8
1981-08-25 00:19:51.310 ,6,0,0.,4.8,4.,4.8,1.,4.8,1.,4.8
1981-08-25 00:19:56.110 ,6,0,0.,4.8,2.,4.8,0.,4.8,0.,4.8
1981-08-25 00:20:00.910 ,7,0,0.,4.8,3.,4.8,1.,4.8,0.,4.8
1981-08-25 00:20:05.710 ,7,0,0.,4.8,0.,4.8,1.,4.8,0.,4.8
1981-08-25 00:20:10.510 ,7,0,0.,4.8,0.,4.8,0.,4.8,0.,4.8
1981-08-25 00:20:15.310 ,7,0,0.,4.8,1.,4.8,0.,4.8,0.,4.8
1981-08-25 00:20:20.110 ,7,0,0.,4.8,1.,4.8,0.,4.8,0.,4.8
1981-08-25 00:20:24.910 ,7,0,0.,4.8,0.,4.8,0.,4.8,0.,4.8
1981-08-25 00:20:29.710 ,7,0,0.,4.8,0.,4.8,0.,4.8,0.,4.8
1981-08-25 00:20:34.510 ,7,0,0.,4.8,1.,4.8,0.,4.8,0.,4.8
1981-08-25 00:20:39.310 ,7,0,0.,4.8,0.,4.8,0.,4.8,0.,4.8
1981-08-25 00:20:44.110 ,7,0,0.,4.8,0.,4.8,1.,4.8,1.,4.8
1981-08-25 00:20:48.910 ,7,0,0.,4.8,0.,4.8,0.,4.8,1.,4.8
1981-08-25 00:20:53.710 ,7,0,0.,4.8,0.,4.8,0.,4.8,0.,4.8
1981-08-25 00:20:58.510 ,7,0,0.,4.8,0.,4.8,0.,4.8,0.,4.8
1981-08-25 00:21:03.310 ,7,0,0.,4.8,1.,4.8,0.,4.8,0.,4.8
1981-08-25 00:21:08.110 ,7,0,0.,4.8,1.,4.8,0.,4.8,0.,4.8
1981-08-25 00:21:12.910 ,7,0,0.,4.8,0.,4.8,0.,4.8,0.,4.8
1981-08-25 00:21:17.710 ,7,0,0.,4.8,2.,4.8,0.,4.8,0.,4.8
1981-08-25 00:21:22.510 ,7,0,0.,4.8,0.,4.8,1.,4.8,0.,4.8
1981-08-25 00:21:27.310 ,7,0,0.,4.8,0.,4.8,0.,4.8,0.,4.8
1981-08-25 00:21:32.110 ,7,0,0.,4.8,0.,4.8,0.,4.8,0.,4.8
1981-08-25 00:21:36.910 ,6,0,0.,4.8,0.,4.8,0.,4.8,0.,4.8
1981-08-25 00:21:41.710 ,6,0,0.,4.8,1.,4.8,0.,4.8,0.,4.8
1981-08-25 00:21:46.510 ,6,0,0.,4.8,2.,4.8,0.,4.8,0.,4.8
1981-08-25 00:21:51.310 ,6,0,0.,4.8,2.,4.8,0.,4.8,0.,4.8
1981-08-25 00:21:56.110 ,6,0,0.,4.8,0.,4.8,2.,4.8,0.,4.8
1981-08-25 00:22:00.910 ,6,0,0.,4.8,2.,4.8,0.,4.8,0.,4.8
1981-08-25 00:22:05.710 ,6,0,0.,4.8,1.,4.8,4.,4.8,0.,4.8
1981-08-25 00:22:10.510 ,6,0,0.,4.8,2.,4.8,0.,4.8,0.,4.8
1981-08-25 00:22:15.310 ,6,0,0.,4.8,1.,4.8,0.,4.8,0.,4.8
1981-08-25 00:22:20.110 ,6,0,0.,4.8,2.,4.8,1.,4.8,0.,4.8
1981-08-25 00:22:24.910 ,5,0,0.,4.8,2.,4.8,0.,4.8,0.,4.8
1981-08-25 00:22:29.710 ,5,0,0.,4.8,1.,4.8,0.,4.8,0.,4.8
1981-08-25 00:22:34.510 ,5,0,0.,4.8,1.,4.8,0.,4.8,0.,4.8
1981-08-25 00:22:39.310 ,5,0,0.,4.8,2.,4.8,2.,4.8,0.,4.8
1981-08-25 00:22:44.110 ,5,0,0.,4.8,2.,4.8,1.,4.8,0.,4.8
1981-08-25 00:22:48.910 ,5,0,0.,4.8,3.,4.8,1.,4.8,1.,4.8
1981-08-25 00:22:53.710 ,5,0,0.,4.8,2.,4.8,1.,4.8,0.,4.8
1981-08-25 00:22:58.510 ,5,0,0.,4.8,2.,4.8,1.,4.8,1.,4.8
1981-08-25 00:23:03.310 ,5,0,0.,4.8,1.,4.8,0.,4.8,0.,4.8
1981-08-25 00:23:08.110 ,5,0,0.,4.8,3.,4.8,0.,4.8,1.,4.8
1981-08-25 00:23:12.910 ,4,0,0.,4.8,2.,4.8,0.,4.8,0.,4.8
1981-08-25 00:23:17.710 ,4,0,0.,4.8,2.,4.8,0.,4.8,0.,4.8
1981-08-25 00:23:22.510 ,4,0,0.,4.8,2.,4.8,0.,4.8,1.,4.8
1981-08-25 00:23:27.310 ,4,0,0.,4.8,0.,4.8,1.,4.8,0.,4.8
1981-08-25 00:23:32.110 ,4,0,0.,4.8,0.,4.8,1.,4.8,4.,4.8
1981-08-25 00:23:36.910 ,4,0,0.,4.8,5.,4.8,0.,4.8,0.,4.8
1981-08-25 00:23:41.710 ,4,0,0.,4.8,2.,4.8,4.,4.8,0.,4.8
1981-08-25 00:23:46.510 ,4,0,0.,4.8,1.,4.8,0.,4.8,0.,4.8
1981-08-25 00:23:51.310 ,4,0,0.,4.8,2.,4.8,0.,4.8,1.,4.8
1981-08-25 00:23:56.110 ,4,0,0.,4.8,1.,4.8,3.,4.8,0.,4.8
1981-08-25 00:24:00.910 ,3,0,0.,4.8,1.,4.8,1.,4.8,1.,4.8
1981-08-25 00:24:05.710 ,3,0,0.,4.8,4.,4.8,0.,4.8,1.,4.8
1981-08-25 00:24:10.510 ,3,0,0.,4.8,3.,4.8,1.,4.8,0.,4.8
1981-08-25 00:24:15.310 ,3,0,0.,4.8,2.,4.8,1.,4.8,0.,4.8
1981-08-25 00:24:20.110 ,3,0,0.,4.8,2.,4.8,0.,4.8,0.,4.8
1981-08-25 00:24:24.910 ,3,0,0.,4.8,2.,4.8,0.,4.8,0.,4.8
1981-08-25 00:24:29.710 ,3,0,0.,4.8,2.,4.8,0.,4.8,0.,4.8
1981-08-25 00:24:34.510 ,3,0,0.,4.8,2.,4.8,0.,4.8,0.,4.8
1981-08-25 00:24:39.310 ,3,0,0.,4.8,2.,4.8,0.,4.8,0.,4.8
1981-08-25 00:24:44.110 ,3,0,0.,4.8,2.,4.8,0.,4.8,1.,4.8
1981-08-25 00:24:48.910 ,2,0,0.,4.8,0.,4.8,0.,4.8,1.,4.8
1981-08-25 00:24:53.710 ,2,0,0.,4.8,3.,4.8,0.,4.8,0.,4.8
1981-08-25 00:24:58.510 ,2,0,0.,4.8,0.,4.8,0.,4.8,0.,4.8
1981-08-25 00:25:03.310 ,2,0,0.,4.8,4.,4.8,0.,4.8,0.,4.8
1981-08-25 00:25:08.110 ,2,0,0.,4.8,1.,4.8,0.,4.8,0.,4.8
1981-08-25 00:25:12.910 ,2,0,0.,4.8,0.,4.8,1.,4.8,0.,4.8
1981-08-25 00:25:17.710 ,2,0,0.,4.8,1.,4.8,0.,4.8,0.,4.8
1981-08-25 00:25:22.510 ,2,0,0.,4.8,0.,4.8,0.,4.8,0.,4.8
1981-08-25 00:25:27.310 ,2,0,0.,4.8,0.,4.8,1.,4.8,0.,4.8
1981-08-25 00:25:32.110 ,2,0,0.,4.8,1.,4.8,0.,4.8,0.,4.8
1981-08-25 00:25:36.910 ,1,0,0.,4.8,3.,4.8,1.,4.8,0.,4.8
1981-08-25 00:25:41.710 ,1,0,0.,4.8,0.,4.8,1.,4.8,0.,4.8
1981-08-25 00:25:46.510 ,1,0,0.,4.8,1.,4.8,0.,4.8,0.,4.8
1981-08-25 00:25:51.310 ,1,0,0.,4.8,0.,4.8,1.,4.8,0.,4.8
1981-08-25 00:25:56.110 ,1,0,0.,4.8,1.,4.8,1.,4.8,0.,4.8
1981-08-25 00:26:00.910 ,1,0,0.,4.8,0.,4.8,0.,4.8,0.,4.8
1981-08-25 00:26:05.710 ,1,0,0.,4.8,3.,4.8,0.,4.8,0.,4.8
1981-08-25 00:26:10.510 ,1,0,0.,4.8,1.,4.8,0.,4.8,0.,4.8
1981-08-25 00:26:15.310 ,1,0,0.,4.8,3.,4.8,1.,4.8,0.,4.8
1981-08-25 00:26:20.110 ,1,0,0.,4.8,0.,4.8,0.,4.8,0.,4.8
1981-08-25 00:26:24.910 ,0,0,0.,4.8,3.,4.8,0.,4.8,1.,4.8
1981-08-25 00:26:29.710 ,0,0,0.,4.8,0.,4.8,0.,4.8,1.,4.8
1981-08-25 00:26:34.510 ,0,0,0.,4.8,2.,4.8,0.,4.8,0.,4.8
1981-08-25 00:26:39.310 ,0,0,0.,4.8,0.,4.8,0.,4.8,0.,4.8
1981-08-25 00:26:44.110 ,0,0,0.,4.8,0.,4.8,0.,4.8,1.,4.8
1981-08-25 00:26:48.910 ,0,0,0.,4.8,3.,4.8,2.,4.8,0.,4.8
1981-08-25 00:26:53.710 ,0,0,0.,4.8,3.,4.8,0.,4.8,0.,4.8
1981-08-25 00:26:58.510 ,0,0,0.,4.8,3.,4.8,0.,4.8,0.,4.8
1981-08-25 00:27:03.310 ,0,0,0.,4.8,1.,4.8,0.,4.8,1.,4.8
1981-08-25 00:27:08.110 ,0,0,0.,4.8,0.,4.8,0.,4.8,1.,4.8
1981-08-25 00:27:12.910 ,0,0,0.,4.8,2.,4.8,0.,4.8,1.,4.8
1981-08-25 00:27:17.710 ,0,0,0.,4.8,1.,4.8,0.,4.8,0.,4.8
1981-08-25 00:27:22.510 ,0,0,0.,4.8,1.,4.8,0.,4.8,0.,4.8
1981-08-25 00:27:27.310 ,0,0,0.,4.8,5.,4.8,1.,4.8,0.,4.8
1981-08-25 00:27:32.110 ,0,0,0.,4.8,0.,4.8,0.,4.8,0.,4.8
1981-08-25 00:27:36.910 ,0,0,0.,4.8,2.,4.8,0.,4.8,0.,4.8
1981-08-25 00:27:41.710 ,0,0,0.,4.8,1.,4.8,0.,4.8,0.,4.8
1981-08-25 00:27:46.510 ,0,0,0.,4.8,5.,4.8,0.,4.8,0.,4.8
1981-08-25 00:27:51.310 ,0,0,0.,4.8,1.,4.8,0.,4.8,0.,4.8
1981-08-25 00:27:56.110 ,0,0,0.,4.8,0.,4.8,0.,4.8,0.,4.8
1981-08-25 00:28:00.910 ,1,0,0.,4.8,3.,4.8,0.,4.8,0.,4.8
1981-08-25 00:28:05.710 ,1,0,0.,4.8,1.,4.8,0.,4.8,0.,4.8
1981-08-25 00:28:10.510 ,1,0,0.,4.8,3.,4.8,1.,4.8,0.,4.8
1981-08-25 00:28:15.310 ,1,0,0.,4.8,1.,4.8,1.,4.8,0.,4.8
1981-08-25 00:28:20.110 ,1,0,0.,4.8,3.,4.8,0.,4.8,0.,4.8
1981-08-25 00:28:24.910 ,1,0,0.,4.8,2.,4.8,2.,4.8,0.,4.8
1981-08-25 00:28:29.710 ,1,0,0.,4.8,0.,4.8,3.,4.8,0.,4.8
1981-08-25 00:28:34.510 ,1,0,0.,4.8,3.,4.8,0.,4.8,0.,4.8
1981-08-25 00:28:39.310 ,1,0,0.,4.8,1.,4.8,0.,4.8,0.,4.8
1981-08-25 00:28:44.110 ,1,0,0.,4.8,2.,4.8,0.,4.8,0.,4.8
1981-08-25 00:28:48.910 ,2,0,0.,4.8,1.,4.8,1.,4.8,0.,4.8
1981-08-25 00:28:53.710 ,2,0,0.,4.8,0.,4.8,2.,4.8,0.,4.8
1981-08-25 00:28:58.510 ,2,0,0.,4.8,1.,4.8,0.,4.8,0.,4.8
1981-08-25 00:29:03.310 ,2,0,0.,4.8,1.,4.8,0.,4.8,1.,4.8
1981-08-25 00:29:08.110 ,2,0,0.,4.8,0.,4.8,0.,4.8,0.,4.8
1981-08-25 00:29:12.910 ,2,0,0.,4.8,2.,4.8,0.,4.8,0.,4.8
1981-08-25 00:29:17.710 ,2,0,0.,4.8,0.,4.8,1.,4.8,0.,4.8
1981-08-25 00:29:22.510 ,2,0,0.,4.8,2.,4.8,0.,4.8,1.,4.8
1981-08-25 00:29:27.310 ,2,0,0.,4.8,0.,4.8,1.,4.8,2.,4.8
1981-08-25 00:29:32.110 ,2,0,0.,4.8,1.,4.8,0.,4.8,1.,4.8
1981-08-25 00:29:36.910 ,3,0,0.,4.8,2.,4.8,0.,4.8,0.,4.8
1981-08-25 00:29:41.710 ,3,0,0.,4.8,1.,4.8,0.,4.8,0.,4.8
1981-08-25 00:29:46.510 ,3,0,0.,4.8,2.,4.8,0.,4.8,0.,4.8
1981-08-25 00:29:51.310 ,3,0,0.,4.8,0.,4.8,0.,4.8,0.,4.8
1981-08-25 00:29:56.110 ,3,0,0.,4.8,0.,4.8,0.,4.8,0.,4.8
1981-08-25 00:30:00.910 ,3,0,0.,4.8,0.,4.8,0.,4.8,1.,4.8
1981-08-25 00:30:05.710 ,3,0,0.,4.8,0.,4.8,0.,4.8,0.,4.8
1981-08-25 00:30:10.510 ,3,0,0.,4.8,0.,4.8,0.,4.8,0.,4.8
1981-08-25 00:30:15.310 ,3,0,0.,4.8,1.,4.8,1.,4.8,0.,4.8
1981-08-25 00:30:20.110 ,3,0,0.,4.8,0.,4.8,0.,4.8,1.,4.8
1981-08-25 00:30:24.910 ,4,0,0.,4.8,2.,4.8,1.,4.8,0.,4.8
1981-08-25 00:30:29.710 ,4,0,0.,4.8,0.,4.8,0.,4.8,0.,4.8
1981-08-25 00:30:34.510 ,4,0,0.,4.8,2.,4.8,1.,4.8,0.,4.8
1981-08-25 00:30:39.310 ,4,0,0.,4.8,2.,4.8,0.,4.8,1.,4.8
1981-08-25 00:30:44.110 ,4,0,0.,4.8,0.,4.8,1.,4.8,0.,4.8
1981-08-25 00:30:48.910 ,4,0,0.,4.8,1.,4.8,0.,4.8,0.,4.8
1981-08-25 00:30:53.710 ,4,0,0.,4.8,3.,4.8,2.,4.8,1.,4.8
1981-08-25 00:30:58.510 ,4,0,0.,4.8,1.,4.8,1.,4.8,0.,4.8
1981-08-25 00:31:03.310 ,4,0,0.,4.8,3.,4.8,1.,4.8,0.,4.8
1981-08-25 00:31:08.110 ,4,0,0.,4.8,3.,4.8,1.,4.8,0.,4.8
1981-08-25 00:31:12.910 ,5,0,0.,4.8,2.,4.8,0.,4.8,0.,4.8
1981-08-25 00:31:17.710 ,5,0,0.,4.8,3.,4.8,0.,4.8,0.,4.8
1981-08-25 00:31:22.510 ,5,0,0.,4.8,1.,4.8,0.,4.8,3.,4.8
1981-08-25 00:31:27.310 ,5,0,0.,4.8,0.,4.8,1.,4.8,0.,4.8
1981-08-25 00:31:32.110 ,5,0,0.,4.8,2.,4.8,0.,4.8,0.,4.8
1981-08-25 00:31:36.910 ,5,0,0.,4.8,2.,4.8,0.,4.8,0.,4.8
1981-08-25 00:31:41.710 ,5,0,0.,4.8,4.,4.8,1.,4.8,1.,4.8
1981-08-25 00:31:46.510 ,5,0,0.,4.8,5.,4.8,0.,4.8,0.,4.8
1981-08-25 00:31:51.310 ,5,0,0.,4.8,2.,4.8,0.,4.8,0.,4.8
1981-08-25 00:31:56.110 ,5,0,0.,4.8,0.,4.8,0.,4.8,1.,4.8
1981-08-25 00:32:00.910 ,6,0,0.,4.8,2.,4.8,0.,4.8,0.,4.8
1981-08-25 00:32:05.710 ,6,0,0.,4.8,1.,4.8,0.,4.8,0.,4.8
1981-08-25 00:32:10.510 ,6,0,0.,4.8,2.,4.8,1.,4.8,0.,4.8
1981-08-25 00:32:15.310 ,6,0,0.,4.8,2.,4.8,0.,4.8,1.,4.8
1981-08-25 00:32:20.110 ,6,0,0.,4.8,1.,4.8,0.,4.8,0.,4.8
1981-08-25 00:32:24.910 ,0,0,0.,4.8,1.,4.8,1.,4.8,0.,4.8
1981-08-25 00:32:29.710 ,0,0,0.,4.8,1.,4.8,0.,4.8,0.,4.8
1981-08-25 00:32:34.510 ,0,0,,0,,0,,0,,0
1981-08-25 00:32:39.310 ,0,0,,0,,0,,0,,0
1981-08-25 00:32:44.110 ,0,0,,0,,0,,0,,0
1981-08-25 00:32:35.710 ,0,0,,0,,0,,0,,0
1981-08-25 00:32:40.510 ,0,0,,0,,0,,0,,0
1981-08-25 00:32:45.310 ,0,0,0.,4.8,1.,4.8,0.,4.8,1.,4.8
1981-08-25 00:32:50.110 ,0,0,,0,,0,,0,,0
1981-08-25 00:32:54.910 ,0,0,,0,,0,,0,,0
1981-08-25 00:32:36.310 ,0,0,,0,,0,,0,,0
1981-08-25 00:32:41.110 ,0,0,,0,,0,,0,,0
1981-08-25 00:32:45.910 ,0,0,,0,,0,,0,,0
1981-08-25 00:32:50.710 ,0,0,0.,4.8,2.,4.8,1.,4.8,0.,4.8
1981-08-25 00:32:55.510 ,0,0,0.,4.8,2.,4.8,0.,4.8,0.,4.8
1981-08-25 00:32:48.910 ,7,0,0.,4.8,7.,4.8,1.,4.8,0.,4.8
1981-08-25 00:32:53.710 ,7,0,0.,4.8,0.,4.8,1.,4.8,1.,4.8
1981-08-25 00:32:58.510 ,7,0,0.,4.8,0.,4.8,0.,4.8,0.,4.8
1981-08-25 00:33:03.310 ,7,0,0.,4.8,0.,4.8,0.,4.8,0.,4.8
1981-08-25 00:33:08.110 ,7,0,0.,4.8,1.,4.8,0.,4.8,0.,4.8
1981-08-25 00:33:12.910 ,7,0,0.,4.8,0.,4.8,0.,4.8,0.,4.8